Location: Unspecified
(52.4292°N, 19.3359°E)
Time: 14:45:27
(UTC+01:00)

A-11 Canister half - Pass Details

Date: 20 October 2025
Orbit: 1526 x 1682 km, 47.3° (Epoch: 13 November)

Event Time Altitude Azimuth Distance (km) Brightness Sun altitude
Exits shadow 01:37:00 19° 97° (E) 3,016 10.6 -45.6°
Drops below altitude 10° 01:39:47 10° 84° (E) 3,696 11.2 -45.4°
Sets 01:43:14 0° 75° (ENE) 4,682 12.0 -45.2°
